Time,TemperatureF,DewpointF,PressureIn,WindDirection,WindDirectionDegrees,WindSpeedMPH,WindSpeedGustMPH,Humidity,HourlyPrecipIn,Conditions,Clouds,dailyrainin,SoftwareType,DateUTC
2013-03-31 00:01:00,39.6,38.5,22.18,North,0,1.0,9.0,96,0.00,,,0.01,meteohub,2013-03-31 05:01:00,
2013-03-31 00:06:00,39.6,38.5,22.18,NW,315,2.0,8.0,96,0.00,,,0.01,meteohub,2013-03-31 05:06:00,
2013-03-31 00:11:00,39.6,38.5,22.18,NW,315,2.0,6.0,96,0.00,,,0.01,meteohub,2013-03-31 05:11:00,
2013-03-31 00:16:00,39.4,38.1,22.18,North,0,2.0,7.0,95,0.00,,,0.01,meteohub,2013-03-31 05:16:00,
2013-03-31 00:21:00,39.4,38.1,22.19,NW,315,4.0,7.0,95,0.00,,,0.01,meteohub,2013-03-31 05:21:00,
2013-03-31 00:26:00,39.2,37.9,22.19,NW,315,1.0,6.0,95,0.00,,,0.01,meteohub,2013-03-31 05:26:00,
2013-03-31 00:31:00,39.2,37.9,22.19,NW,315,2.0,6.0,95,0.00,,,0.01,meteohub,2013-03-31 05:31:00,
2013-03-31 00:36:00,39.0,37.9,22.19,NW,315,3.0,6.0,96,0.00,,,0.01,meteohub,2013-03-31 05:36:00,
2013-03-31 00:41:00,38.8,37.8,22.19,NW,315,3.0,5.0,96,0.00,,,0.01,meteohub,2013-03-31 05:41:00,
2013-03-31 00:46:00,38.7,37.4,22.19,North,0,2.0,4.0,95,0.00,,,0.01,meteohub,2013-03-31 05:46:00,
2013-03-31 00:51:00,38.7,37.4,22.19,West,270,4.0,4.0,95,0.00,,,0.01,meteohub,2013-03-31 05:51:00,
2013-03-31 00:56:00,38.5,37.2,22.19,NW,315,2.0,5.0,95,0.00,,,0.01,meteohub,2013-03-31 05:56:00,
2013-03-31 01:02:00,38.3,37.0,22.19,North,0,2.0,5.0,95,0.00,,,0.01,meteohub,2013-03-31 06:02:00,
2013-03-31 01:07:00,38.3,37.0,22.19,North,0,2.0,5.0,95,0.00,,,0.01,meteohub,2013-03-31 06:07:00,
2013-03-31 01:12:00,37.8,36.1,22.19,NW,315,2.0,4.0,94,0.00,,,0.01,meteohub,2013-03-31 06:12:00,
2013-03-31 01:17:00,37.8,36.1,22.19,NW,315,2.0,4.0,94,0.00,,,0.01,meteohub,2013-03-31 06:17:00,
2013-03-31 01:22:00,37.6,36.0,22.19,North,0,2.0,4.0,94,0.00,,,0.01,meteohub,2013-03-31 06:22:00,
2013-03-31 01:27:00,37.4,35.8,22.19,North,0,3.0,4.0,94,0.00,,,0.01,meteohub,2013-03-31 06:27:00,
2013-03-31 01:32:00,37.2,34.5,22.19,North,0,3.0,4.0,90,0.00,,,0.01,meteohub,2013-03-31 06:32:00,
2013-03-31 01:37:00,37.2,34.5,22.19,SW,225,4.0,4.0,90,0.00,,,0.01,meteohub,2013-03-31 06:37:00,
2013-03-31 01:42:00,37.0,34.3,22.19,North,0,3.0,6.0,90,0.00,,,0.01,meteohub,2013-03-31 06:42:00,
2013-03-31 01:47:00,37.0,34.3,22.19,NNE,23,2.0,6.0,90,0.00,,,0.01,meteohub,2013-03-31 06:47:00,
2013-03-31 01:52:00,37.0,34.3,22.19,North,0,3.0,6.0,90,0.00,,,0.01,meteohub,2013-03-31 06:52:00,
2013-03-31 01:57:00,37.0,34.7,22.19,NW,315,1.0,4.0,91,0.00,,,0.01,meteohub,2013-03-31 06:57:00,
2013-03-31 02:02:00,37.2,34.9,22.20,NW,315,3.0,4.0,91,0.00,,,0.01,meteohub,2013-03-31 07:02:00,
2013-03-31 02:07:00,37.2,34.9,22.20,North,0,2.0,4.0,91,0.00,,,0.01,meteohub,2013-03-31 07:07:00,
2013-03-31 02:12:00,37.2,34.9,22.20,North,0,3.0,5.0,91,0.00,,,0.01,meteohub,2013-03-31 07:12:00,
2013-03-31 02:17:00,37.4,36.1,22.21,NW,315,3.0,5.0,95,0.00,,,0.01,meteohub,2013-03-31 07:17:00,
2013-03-31 02:22:00,37.4,36.1,22.21,NW,315,3.0,5.0,95,0.00,,,0.01,meteohub,2013-03-31 07:22:00,
2013-03-31 02:27:00,37.2,34.9,22.21,NW,315,3.0,5.0,91,0.00,,,0.01,meteohub,2013-03-31 07:27:00,
2013-03-31 02:32:00,37.2,34.9,22.21,North,0,2.0,4.0,91,0.00,,,0.01,meteohub,2013-03-31 07:32:00,
2013-03-31 02:37:00,37.2,34.9,22.21,North,0,2.0,4.0,91,0.00,,,0.01,meteohub,2013-03-31 07:37:00,
2013-03-31 02:42:00,37.2,34.9,22.22,North,0,1.0,4.0,91,0.00,,,0.01,meteohub,2013-03-31 07:42:00,
2013-03-31 02:47:00,37.2,34.9,22.22,NW,315,3.0,4.0,91,0.00,,,0.01,meteohub,2013-03-31 07:47:00,
2013-03-31 02:52:00,37.4,36.1,22.22,NW,315,2.0,4.0,95,0.00,,,0.01,meteohub,2013-03-31 07:52:00,
2013-03-31 02:57:00,37.4,36.1,22.22,North,0,2.0,5.0,95,0.00,,,0.01,meteohub,2013-03-31 07:57:00,
2013-03-31 03:02:00,37.4,36.1,22.22,North,0,2.0,5.0,95,0.00,,,0.01,meteohub,2013-03-31 08:02:00,
2013-03-31 03:07:00,37.4,36.1,22.22,North,0,2.0,5.0,95,0.00,,,0.01,meteohub,2013-03-31 08:07:00,
2013-03-31 03:12:00,37.8,36.5,22.23,West,270,2.0,4.0,95,0.00,,,0.01,meteohub,2013-03-31 08:12:00,
2013-03-31 03:17:00,37.8,36.5,22.22,South,180,1.0,3.0,95,0.00,,,0.01,meteohub,2013-03-31 08:17:00,
2013-03-31 03:22:00,37.8,36.5,22.23,West,270,0.0,3.0,95,0.00,,,0.01,meteohub,2013-03-31 08:22:00,
2013-03-31 03:27:00,38.1,36.9,22.23,NW,315,3.0,3.0,95,0.00,,,0.01,meteohub,2013-03-31 08:27:00,
2013-03-31 03:32:00,38.1,36.9,22.23,NNW,338,2.0,5.0,95,0.00,,,0.01,meteohub,2013-03-31 08:32:00,
2013-03-31 03:37:00,38.1,36.9,22.23,NE,45,3.0,5.0,95,0.00,,,0.01,meteohub,2013-03-31 08:37:00,
2013-03-31 03:42:00,38.3,37.2,22.23,North,0,4.0,4.0,96,0.00,,,0.01,meteohub,2013-03-31 08:42:00,
2013-03-31 03:47:00,38.5,37.4,22.23,West,270,0.0,4.0,96,0.00,,,0.01,meteohub,2013-03-31 08:47:00,
2013-03-31 03:52:00,38.5,37.4,22.24,NE,45,2.0,4.0,96,0.00,,,0.01,meteohub,2013-03-31 08:52:00,
2013-03-31 03:57:00,38.5,37.4,22.24,North,0,0.0,6.0,96,0.00,,,0.01,meteohub,2013-03-31 08:57:00,
2013-03-31 04:02:00,38.3,37.2,22.24,NW,315,3.0,6.0,96,0.00,,,0.01,meteohub,2013-03-31 09:02:00,
2013-03-31 04:07:00,38.5,37.4,22.24,North,0,4.0,6.0,96,0.00,,,0.01,meteohub,2013-03-31 09:07:00,
2013-03-31 04:12:00,38.7,37.6,22.24,NE,45,4.0,6.0,96,0.00,,,0.01,meteohub,2013-03-31 09:12:00,
2013-03-31 04:17:00,38.7,37.6,22.24,North,0,5.0,6.0,96,0.00,,,0.01,meteohub,2013-03-31 09:17:00,
2013-03-31 04:22:00,38.7,37.6,22.24,North,0,5.0,8.0,96,0.00,,,0.01,meteohub,2013-03-31 09:22:00,
2013-03-31 04:27:00,38.8,37.8,22.24,North,0,2.0,11.0,96,0.00,,,0.01,meteohub,2013-03-31 09:27:00,
2013-03-31 04:32:00,38.8,37.8,22.25,North,0,9.0,11.0,96,0.00,,,0.01,meteohub,2013-03-31 09:32:00,
2013-03-31 04:37:00,38.8,37.8,22.25,North,0,13.0,13.0,96,0.00,,,0.01,meteohub,2013-03-31 09:37:00,
2013-03-31 04:42:00,38.8,37.8,22.25,NE,45,6.0,13.0,96,0.00,,,0.01,meteohub,2013-03-31 09:42:00,
2013-03-31 04:47:00,38.8,37.8,22.25,North,0,8.0,13.0,96,0.00,,,0.01,meteohub,2013-03-31 09:47:00,
2013-03-31 04:52:00,38.8,37.8,22.25,North,0,4.0,13.0,96,0.00,,,0.01,meteohub,2013-03-31 09:52:00,
2013-03-31 04:57:00,38.8,37.6,22.25,WSW,248,4.0,8.0,95,0.00,,,0.01,meteohub,2013-03-31 09:57:00,
2013-03-31 05:02:00,38.8,37.6,22.25,West,270,4.0,8.0,95,0.00,,,0.01,meteohub,2013-03-31 10:02:00,
2013-03-31 05:07:00,38.7,37.4,22.25,West,270,11.0,11.0,95,0.00,,,0.01,meteohub,2013-03-31 10:07:00,
2013-03-31 05:12:00,38.7,37.4,22.24,NW,315,12.0,12.0,95,0.00,,,0.01,meteohub,2013-03-31 10:12:00,
2013-03-31 05:17:00,38.7,37.4,22.24,NW,315,6.0,12.0,95,0.00,,,0.01,meteohub,2013-03-31 10:17:00,
2013-03-31 05:23:00,38.5,36.9,22.25,North,0,13.0,13.0,94,0.00,,,0.01,meteohub,2013-03-31 10:23:00,
2013-03-31 05:28:00,38.5,36.9,22.24,NE,45,4.0,12.0,94,0.00,,,0.01,meteohub,2013-03-31 10:28:00,
2013-03-31 05:33:00,38.5,36.9,22.25,NW,315,4.0,13.0,94,0.00,,,0.01,meteohub,2013-03-31 10:33:00,
2013-03-31 05:38:00,38.5,36.9,22.25,NNW,338,7.0,13.0,94,0.00,,,0.01,meteohub,2013-03-31 10:38:00,
2013-03-31 05:43:00,38.3,36.7,22.25,NE,45,8.0,10.0,94,0.00,,,0.01,meteohub,2013-03-31 10:43:00,
2013-03-31 05:48:00,38.3,36.7,22.25,East,90,8.0,8.0,94,0.00,,,0.01,meteohub,2013-03-31 10:48:00,
2013-03-31 05:53:00,38.3,36.7,22.25,East,90,6.0,10.0,94,0.00,,,0.01,meteohub,2013-03-31 10:53:00,
2013-03-31 05:58:00,38.3,36.7,22.25,NW,315,4.0,10.0,94,0.00,,,0.01,meteohub,2013-03-31 10:58:00,
2013-03-31 06:03:00,38.1,36.5,22.25,North,0,10.0,10.0,94,0.00,,,0.01,meteohub,2013-03-31 11:03:00,
2013-03-31 06:08:00,38.1,36.3,22.25,North,0,3.0,10.0,93,0.00,,,0.01,meteohub,2013-03-31 11:08:00,
2013-03-31 06:13:00,38.1,36.3,22.25,North,0,2.0,10.0,93,0.00,,,0.01,meteohub,2013-03-31 11:13:00,
2013-03-31 06:18:00,38.1,36.3,22.25,NW,315,6.0,10.0,93,0.00,,,0.01,meteohub,2013-03-31 11:18:00,
2013-03-31 06:23:00,37.9,36.1,22.25,West,270,6.0,10.0,93,0.00,,,0.01,meteohub,2013-03-31 11:23:00,
2013-03-31 06:28:00,37.9,36.1,22.25,North,0,6.0,10.0,93,0.00,,,0.01,meteohub,2013-03-31 11:28:00,
2013-03-31 06:33:00,37.9,36.1,22.26,North,0,7.0,10.0,93,0.00,,,0.01,meteohub,2013-03-31 11:33:00,
2013-03-31 06:38:00,37.9,36.1,22.26,West,270,4.0,10.0,93,0.00,,,0.01,meteohub,2013-03-31 11:38:00,
2013-03-31 06:43:00,37.9,36.1,22.26,North,0,6.0,10.0,93,0.00,,,0.01,meteohub,2013-03-31 11:43:00,
2013-03-31 06:48:00,37.8,36.0,22.26,North,0,8.0,8.0,93,0.00,,,0.01,meteohub,2013-03-31 11:48:00,
2013-03-31 06:53:00,37.6,35.8,22.26,North,0,4.0,8.0,93,0.00,,,0.01,meteohub,2013-03-31 11:53:00,
2013-03-31 06:58:00,37.4,35.6,22.27,NE,45,8.0,9.0,93,0.00,,,0.01,meteohub,2013-03-31 11:58:00,
2013-03-31 07:03:00,37.4,35.6,22.26,North,0,8.0,11.0,93,0.00,,,0.01,meteohub,2013-03-31 12:03:00,
2013-03-31 07:08:00,36.9,34.0,22.27,North,0,4.0,11.0,89,0.00,,,0.01,meteohub,2013-03-31 12:08:00,
2013-03-31 07:13:00,36.9,34.0,22.27,NW,315,8.0,11.0,89,0.00,,,0.01,meteohub,2013-03-31 12:13:00,
2013-03-31 07:18:00,36.9,34.0,22.27,NE,45,5.0,13.0,89,0.00,,,0.01,meteohub,2013-03-31 12:18:00,
2013-03-31 07:23:00,36.9,34.0,22.27,NNE,23,4.0,13.0,89,0.00,,,0.01,meteohub,2013-03-31 12:23:00,
2013-03-31 07:28:00,36.9,34.0,22.26,NW,315,6.0,13.0,89,0.00,,,0.01,meteohub,2013-03-31 12:28:00,
2013-03-31 07:33:00,36.9,34.0,22.26,North,0,4.0,11.0,89,0.00,,,0.01,meteohub,2013-03-31 12:33:00,
2013-03-31 07:38:00,36.9,34.0,22.25,North,0,5.0,8.0,89,0.00,,,0.01,meteohub,2013-03-31 12:38:00,
2013-03-31 07:43:00,36.7,33.8,22.25,East,90,8.0,10.0,89,0.00,,,0.01,meteohub,2013-03-31 12:43:00,
2013-03-31 07:48:00,36.7,33.8,22.25,NE,45,6.0,10.0,89,0.00,,,0.01,meteohub,2013-03-31 12:48:00,
2013-03-31 07:53:00,36.7,33.8,22.26,NE,45,4.0,15.0,89,0.00,,,0.01,meteohub,2013-03-31 12:53:00,
2013-03-31 07:58:00,36.7,33.8,22.25,NE,45,10.0,15.0,89,0.00,,,0.01,meteohub,2013-03-31 12:58:00,
2013-03-31 08:03:00,36.5,33.3,22.25,NW,315,14.0,15.0,88,0.00,,,0.01,meteohub,2013-03-31 13:03:00,
2013-03-31 08:08:00,36.5,33.3,22.26,NW,315,10.0,19.0,88,0.00,,,0.01,meteohub,2013-03-31 13:08:00,
2013-03-31 08:13:00,36.5,33.3,22.26,East,90,9.0,19.0,88,0.00,,,0.01,meteohub,2013-03-31 13:13:00,
2013-03-31 08:19:00,36.5,33.3,22.26,NNE,23,11.0,18.0,88,0.00,,,0.01,meteohub,2013-03-31 13:19:00,
2013-03-31 08:23:00,36.3,33.1,22.26,North,0,2.0,11.0,88,0.00,,,0.01,meteohub,2013-03-31 13:23:00,
2013-03-31 08:29:00,36.3,33.1,22.26,North,0,13.0,13.0,88,0.00,,,0.01,meteohub,2013-03-31 13:29:00,
2013-03-31 08:34:00,36.5,33.3,22.26,West,270,5.0,13.0,88,0.00,,,0.01,meteohub,2013-03-31 13:34:00,
2013-03-31 08:39:00,36.5,33.3,22.26,North,0,5.0,13.0,88,0.00,,,0.01,meteohub,2013-03-31 13:39:00,
2013-03-31 08:44:00,36.7,33.4,22.26,NE,45,7.0,13.0,88,0.00,,,0.01,meteohub,2013-03-31 13:44:00,
2013-03-31 08:49:00,36.7,33.4,22.26,North,0,5.0,8.0,88,0.00,,,0.01,meteohub,2013-03-31 13:49:00,
2013-03-31 08:54:00,36.7,33.4,22.26,West,270,3.0,11.0,88,0.00,,,0.01,meteohub,2013-03-31 13:54:00,
2013-03-31 08:59:00,36.5,33.1,22.27,NE,45,3.0,11.0,87,0.00,,,0.01,meteohub,2013-03-31 13:59:00,
2013-03-31 09:04:00,36.5,33.1,22.26,NE,45,3.0,11.0,87,0.00,,,0.01,meteohub,2013-03-31 14:04:00,
2013-03-31 09:09:00,36.7,33.3,22.26,North,0,9.0,9.0,87,0.00,,,0.01,meteohub,2013-03-31 14:09:00,
2013-03-31 09:14:00,36.5,33.1,22.26,NE,45,8.0,11.0,87,0.00,,,0.01,meteohub,2013-03-31 14:14:00,
2013-03-31 09:19:00,36.5,33.1,22.27,NE,45,8.0,11.0,87,0.00,,,0.01,meteohub,2013-03-31 14:19:00,
2013-03-31 09:24:00,36.7,33.3,22.27,North,0,6.0,11.0,87,0.00,,,0.01,meteohub,2013-03-31 14:24:00,
2013-03-31 09:29:00,37.2,33.4,22.27,NE,45,4.0,11.0,86,0.00,,,0.01,meteohub,2013-03-31 14:29:00,
2013-03-31 09:34:00,37.6,34.3,22.27,NE,45,5.0,11.0,88,0.00,,,0.01,meteohub,2013-03-31 14:34:00,
2013-03-31 09:39:00,37.8,34.0,22.27,NE,45,6.0,11.0,86,0.00,,,0.01,meteohub,2013-03-31 14:39:00,
2013-03-31 09:44:00,38.3,34.2,22.27,NW,315,4.0,11.0,85,0.00,,,0.01,meteohub,2013-03-31 14:44:00,
2013-03-31 09:49:00,38.8,34.3,22.27,NNE,23,8.0,11.0,84,0.00,,,0.01,meteohub,2013-03-31 14:49:00,
2013-03-31 09:54:00,39.2,33.6,22.27,North,0,7.0,8.0,80,0.00,,,0.01,meteohub,2013-03-31 14:54:00,
2013-03-31 09:59:00,40.5,33.1,22.27,North,0,3.0,10.0,75,0.00,,,0.01,meteohub,2013-03-31 14:59:00,
2013-03-31 10:04:00,40.6,32.7,22.27,NE,45,10.0,11.0,73,0.00,,,0.01,meteohub,2013-03-31 15:04:00,
2013-03-31 10:09:00,40.1,32.2,22.27,NE,45,6.0,12.0,73,0.00,,,0.01,meteohub,2013-03-31 15:09:00,
2013-03-31 10:14:00,39.9,32.7,22.27,North,0,8.0,13.0,75,0.00,,,0.01,meteohub,2013-03-31 15:14:00,
2013-03-31 10:19:00,39.7,32.5,22.27,NE,45,7.0,13.0,75,0.00,,,0.01,meteohub,2013-03-31 15:19:00,
2013-03-31 10:24:00,41.4,33.4,22.27,North,0,8.0,13.0,73,0.00,,,0.01,meteohub,2013-03-31 15:24:00,
2013-03-31 10:29:00,42.3,33.6,22.27,NE,45,7.0,13.0,71,0.00,,,0.01,meteohub,2013-03-31 15:29:00,
2013-03-31 10:34:00,41.4,32.0,22.27,NW,315,7.0,12.0,69,0.00,,,0.01,meteohub,2013-03-31 15:34:00,
2013-03-31 10:39:00,41.5,32.2,22.27,NE,45,14.0,14.0,69,0.00,,,0.01,meteohub,2013-03-31 15:39:00,
2013-03-31 10:44:00,41.9,32.5,22.27,North,0,8.0,14.0,69,0.00,,,0.01,meteohub,2013-03-31 15:44:00,
2013-03-31 10:49:00,41.9,31.8,22.27,WNW,293,8.0,14.0,67,0.00,,,0.01,meteohub,2013-03-31 15:49:00,
2013-03-31 10:54:00,43.2,32.5,22.27,North,0,11.0,14.0,66,0.00,,,0.01,meteohub,2013-03-31 15:54:00,
2013-03-31 10:59:00,43.0,31.3,22.27,North,0,13.0,13.0,63,0.00,,,0.01,meteohub,2013-03-31 15:59:00,
2013-03-31 11:04:00,42.8,30.7,22.27,North,0,6.0,11.0,62,0.00,,,0.01,meteohub,2013-03-31 16:04:00,
2013-03-31 11:09:00,43.5,30.6,22.27,NE,45,4.0,13.0,60,0.00,,,0.01,meteohub,2013-03-31 16:09:00,
2013-03-31 11:14:00,44.1,30.7,22.27,North,0,11.0,13.0,59,0.00,,,0.01,meteohub,2013-03-31 16:14:00,
2013-03-31 11:19:00,43.7,30.4,22.28,NE,45,5.0,14.0,59,0.00,,,0.01,meteohub,2013-03-31 16:19:00,
2013-03-31 11:24:00,44.2,31.3,22.28,NW,315,9.0,14.0,60,0.00,,,0.01,meteohub,2013-03-31 16:24:00,
2013-03-31 11:29:00,44.4,30.9,22.28,NE,45,11.0,14.0,59,0.00,,,0.01,meteohub,2013-03-31 16:29:00,
2013-03-31 11:34:00,45.1,30.7,22.28,North,0,7.0,11.0,57,0.00,,,0.01,meteohub,2013-03-31 16:34:00,
2013-03-31 11:39:00,45.3,30.0,22.28,NW,315,10.0,11.0,55,0.00,,,0.01,meteohub,2013-03-31 16:39:00,
2013-03-31 11:44:00,44.8,29.7,22.27,NW,315,12.0,12.0,55,0.00,,,0.01,meteohub,2013-03-31 16:44:00,
2013-03-31 11:49:00,43.9,29.1,22.27,NE,45,8.0,13.0,56,0.00,,,0.01,meteohub,2013-03-31 16:49:00,
2013-03-31 11:54:00,44.4,29.7,22.27,NW,315,8.0,15.0,56,0.00,,,0.01,meteohub,2013-03-31 16:54:00,
2013-03-31 11:59:00,45.0,28.9,22.27,North,0,11.0,15.0,53,0.00,,,0.01,meteohub,2013-03-31 16:59:00,
2013-03-31 12:04:00,45.3,28.2,22.27,NW,315,15.0,16.0,51,0.00,,,0.01,meteohub,2013-03-31 17:04:00,
2013-03-31 12:09:00,44.8,28.2,22.27,NW,315,15.0,16.0,52,0.00,,,0.01,meteohub,2013-03-31 17:09:00,
2013-03-31 12:14:00,45.0,28.9,22.27,North,0,12.0,17.0,53,0.00,,,0.01,meteohub,2013-03-31 17:14:00,
2013-03-31 12:19:00,45.5,29.3,22.27,NW,315,17.0,17.0,53,0.00,,,0.01,meteohub,2013-03-31 17:19:00,
2013-03-31 12:24:00,44.6,28.0,22.27,North,0,16.0,17.0,52,0.00,,,0.01,meteohub,2013-03-31 17:24:00,
2013-03-31 12:29:00,44.1,28.4,22.27,North,0,15.0,19.0,54,0.00,,,0.01,meteohub,2013-03-31 17:29:00,
2013-03-31 12:34:00,43.9,29.1,22.26,NE,45,8.0,22.0,56,0.00,,,0.01,meteohub,2013-03-31 17:34:00,
2013-03-31 12:39:00,44.2,30.0,22.26,North,0,8.0,22.0,57,0.00,,,0.01,meteohub,2013-03-31 17:39:00,
2013-03-31 12:44:00,43.3,28.8,22.26,North,0,12.0,17.0,56,0.00,,,0.01,meteohub,2013-03-31 17:44:00,
2013-03-31 12:49:00,44.2,29.5,22.26,North,0,14.0,19.0,56,0.00,,,0.01,meteohub,2013-03-31 17:49:00,
2013-03-31 12:54:00,43.2,28.6,22.26,North,0,13.0,19.0,56,0.00,,,0.01,meteohub,2013-03-31 17:54:00,
2013-03-31 12:59:00,42.8,28.2,22.26,North,0,15.0,19.0,56,0.00,,,0.01,meteohub,2013-03-31 17:59:00,
2013-03-31 13:04:00,42.8,28.2,22.26,North,0,15.0,19.0,56,0.00,,,0.01,meteohub,2013-03-31 18:04:00,
2013-03-31 13:09:00,42.3,29.3,22.26,North,0,11.0,17.0,60,0.00,,,0.01,meteohub,2013-03-31 18:09:00,
2013-03-31 13:14:00,41.4,28.9,22.26,East,90,11.0,17.0,61,0.00,,,0.01,meteohub,2013-03-31 18:14:00,
2013-03-31 13:19:00,40.8,29.1,22.26,North,0,12.0,18.0,63,0.00,,,0.01,meteohub,2013-03-31 18:19:00,
2013-03-31 13:24:00,40.8,29.7,22.25,East,90,14.0,18.0,64,0.00,,,0.01,meteohub,2013-03-31 18:24:00,
2013-03-31 13:29:00,40.3,29.5,22.25,North,0,7.0,18.0,65,0.00,,,0.01,meteohub,2013-03-31 18:29:00,
2013-03-31 13:34:00,40.3,29.8,22.25,NE,45,10.0,18.0,66,0.00,,,0.01,meteohub,2013-03-31 18:34:00,
2013-03-31 13:39:00,39.9,29.5,22.25,NE,45,17.0,18.0,66,0.00,,,0.01,meteohub,2013-03-31 18:39:00,
2013-03-31 13:44:00,39.4,29.3,22.25,WNW,293,16.0,17.0,67,0.00,,,0.01,meteohub,2013-03-31 18:44:00,
2013-03-31 13:49:00,39.0,30.0,22.25,North,0,13.0,17.0,70,0.00,,,0.01,meteohub,2013-03-31 18:49:00,
2013-03-31 13:54:00,38.5,30.2,22.25,North,0,8.0,21.0,72,0.00,,,0.01,meteohub,2013-03-31 18:54:00,
2013-03-31 13:59:00,38.3,30.4,22.25,NE,45,11.0,21.0,73,0.00,,,0.01,meteohub,2013-03-31 18:59:00,
2013-03-31 14:04:00,37.9,30.0,22.25,NE,45,12.0,17.0,73,0.00,,,0.01,meteohub,2013-03-31 19:04:00,
2013-03-31 14:09:00,37.8,30.2,22.25,North,0,8.0,21.0,74,0.00,,,0.01,meteohub,2013-03-31 19:09:00,
2013-03-31 14:14:00,37.6,30.4,22.25,North,0,9.0,21.0,75,0.00,,,0.01,meteohub,2013-03-31 19:14:00,
2013-03-31 14:19:00,37.6,30.7,22.24,North,0,16.0,21.0,76,0.00,,,0.01,meteohub,2013-03-31 19:19:00,
2013-03-31 14:24:00,37.2,29.1,22.25,NW,315,8.0,17.0,72,0.00,,,0.01,meteohub,2013-03-31 19:24:00,
2013-03-31 14:29:00,37.4,30.6,22.25,North,0,11.0,16.0,76,0.00,,,0.01,meteohub,2013-03-31 19:29:00,
2013-03-31 14:34:00,37.6,31.1,22.25,North,0,8.0,16.0,77,0.00,,,0.01,meteohub,2013-03-31 19:34:00,
2013-03-31 14:39:00,37.8,31.3,22.25,North,0,4.0,16.0,77,0.00,,,0.01,meteohub,2013-03-31 19:39:00,
2013-03-31 14:44:00,37.6,31.1,22.25,East,90,16.0,16.0,77,0.00,,,0.01,meteohub,2013-03-31 19:44:00,
2013-03-31 14:49:00,37.2,29.3,22.25,North,0,14.0,15.0,73,0.00,,,0.01,meteohub,2013-03-31 19:49:00,
2013-03-31 14:54:00,37.0,29.1,22.24,North,0,11.0,17.0,73,0.00,,,0.01,meteohub,2013-03-31 19:54:00,
2013-03-31 14:59:00,37.0,29.5,22.24,NW,315,9.0,17.0,74,0.00,,,0.01,meteohub,2013-03-31 19:59:00,
2013-03-31 15:04:00,37.0,29.5,22.24,NW,315,9.0,17.0,74,0.00,,,0.01,meteohub,2013-03-31 20:04:00,
2013-03-31 15:09:00,37.2,29.7,22.24,North,0,8.0,15.0,74,0.00,,,0.01,meteohub,2013-03-31 20:09:00,
2013-03-31 15:14:00,37.0,29.5,22.24,NE,45,8.0,13.0,74,0.00,,,0.01,meteohub,2013-03-31 20:14:00,
2013-03-31 15:19:00,37.2,29.7,22.24,NNE,23,13.0,13.0,74,0.00,,,0.01,meteohub,2013-03-31 20:19:00,
2013-03-31 15:24:00,37.8,31.5,22.25,SE,135,5.0,11.0,78,0.00,,,0.01,meteohub,2013-03-31 20:24:00,
2013-03-31 15:29:00,40.8,33.4,22.25,NW,315,9.0,13.0,75,0.00,,,0.01,meteohub,2013-03-31 20:29:00,
2013-03-31 15:34:00,42.1,32.7,22.25,SE,135,12.0,13.0,69,0.00,,,0.01,meteohub,2013-03-31 20:34:00,
2013-03-31 15:39:00,41.2,30.4,22.25,NW,315,11.0,14.0,65,0.00,,,0.01,meteohub,2013-03-31 20:39:00,
2013-03-31 15:44:00,41.4,30.0,22.25,NE,45,11.0,16.0,64,0.00,,,0.01,meteohub,2013-03-31 20:44:00,
2013-03-31 15:49:00,41.4,30.0,22.25,North,0,9.0,17.0,64,0.00,,,0.01,meteohub,2013-03-31 20:49:00,
2013-03-31 15:54:00,41.7,30.0,22.25,NW,315,14.0,17.0,63,0.00,,,0.01,meteohub,2013-03-31 20:54:00,
2013-03-31 15:59:00,42.6,30.2,22.25,NW,315,8.0,17.0,61,0.00,,,0.01,meteohub,2013-03-31 20:59:00,
2013-03-31 16:04:00,41.4,28.9,22.25,North,0,7.0,15.0,61,0.00,,,0.01,meteohub,2013-03-31 21:04:00,
2013-03-31 16:09:00,40.6,28.6,22.25,NE,45,16.0,16.0,62,0.00,,,0.01,meteohub,2013-03-31 21:09:00,
2013-03-31 16:14:00,40.6,28.6,22.25,NE,45,11.0,16.0,62,0.00,,,0.01,meteohub,2013-03-31 21:14:00,
2013-03-31 16:19:00,40.3,28.2,22.25,NE,45,14.0,16.0,62,0.00,,,0.01,meteohub,2013-03-31 21:19:00,
2013-03-31 16:25:00,39.9,28.0,22.25,North,0,14.0,16.0,62,0.00,,,0.01,meteohub,2013-03-31 21:25:00,
2013-03-31 16:30:00,39.7,27.9,22.25,South,180,7.0,14.0,62,0.00,,,0.01,meteohub,2013-03-31 21:30:00,
2013-03-31 16:35:00,39.7,28.2,22.25,North,0,15.0,27.0,63,0.00,,,0.01,meteohub,2013-03-31 21:35:00,
2013-03-31 16:40:00,39.6,28.0,22.24,NW,315,8.0,27.0,63,0.00,,,0.01,meteohub,2013-03-31 21:40:00,
2013-03-31 16:45:00,38.8,28.0,22.24,NE,45,15.0,27.0,65,0.00,,,0.01,meteohub,2013-03-31 21:45:00,
2013-03-31 16:50:00,38.5,28.0,22.24,NW,315,10.0,20.0,66,0.00,,,0.01,meteohub,2013-03-31 21:50:00,
2013-03-31 16:55:00,38.1,28.9,22.24,NE,45,11.0,20.0,69,0.00,,,0.01,meteohub,2013-03-31 21:55:00,
2013-03-31 17:00:00,37.8,28.9,22.24,NE,45,11.0,21.0,70,0.00,,,0.01,meteohub,2013-03-31 22:00:00,
2013-03-31 17:05:00,37.8,28.9,22.24,NE,45,11.0,21.0,70,0.00,,,0.01,meteohub,2013-03-31 22:05:00,
2013-03-31 17:10:00,41.0,30.2,22.24,NE,45,8.0,21.0,65,0.00,,,0.01,meteohub,2013-03-31 22:10:00,
2013-03-31 17:15:00,42.4,30.0,22.24,North,0,7.0,17.0,61,0.00,,,0.01,meteohub,2013-03-31 22:15:00,
2013-03-31 17:20:00,41.0,27.9,22.24,North,0,11.0,11.0,59,0.00,,,0.01,meteohub,2013-03-31 22:20:00,
2013-03-31 17:25:00,39.7,27.9,22.23,NE,45,11.0,15.0,62,0.00,,,0.01,meteohub,2013-03-31 22:25:00,
2013-03-31 17:30:00,40.6,28.6,22.23,East,90,10.0,15.0,62,0.00,,,0.01,meteohub,2013-03-31 22:30:00,
2013-03-31 17:35:00,39.9,28.0,22.24,NW,315,12.0,15.0,62,0.00,,,0.01,meteohub,2013-03-31 22:35:00,
2013-03-31 17:40:00,41.5,28.8,22.23,North,0,9.0,14.0,60,0.00,,,0.01,meteohub,2013-03-31 22:40:00,
2013-03-31 17:45:00,42.8,28.2,22.23,NE,45,8.0,15.0,56,0.00,,,0.01,meteohub,2013-03-31 22:45:00,
2013-03-31 17:50:00,41.0,26.1,22.22,East,90,11.0,15.0,55,0.00,,,0.01,meteohub,2013-03-31 22:50:00,
2013-03-31 17:55:00,37.0,24.1,22.22,East,90,16.0,16.0,59,0.00,,,0.01,meteohub,2013-03-31 22:55:00,
2013-03-31 18:00:00,35.8,24.4,22.22,NW,315,8.0,21.0,63,0.00,,,0.01,meteohub,2013-03-31 23:00:00,
2013-03-31 18:05:00,36.9,24.6,22.22,NW,315,9.0,21.0,61,0.00,,,0.01,meteohub,2013-03-31 23:05:00,
2013-03-31 18:10:00,39.4,26.6,22.22,North,0,9.0,21.0,60,0.00,,,0.01,meteohub,2013-03-31 23:10:00,
2013-03-31 18:15:00,40.3,25.3,22.22,NE,45,4.0,16.0,55,0.00,,,0.01,meteohub,2013-03-31 23:15:00,
2013-03-31 18:20:00,39.6,23.4,22.22,North,0,9.0,15.0,52,0.00,,,0.01,meteohub,2013-03-31 23:20:00,
2013-03-31 18:25:00,40.3,23.5,22.22,North,0,2.0,12.0,51,0.00,,,0.01,meteohub,2013-03-31 23:25:00,
2013-03-31 18:30:00,41.5,23.7,22.22,NE,45,8.0,12.0,49,0.00,,,0.01,meteohub,2013-03-31 23:30:00,
2013-03-31 18:35:00,40.8,21.6,22.21,NE,45,5.0,12.0,46,0.00,,,0.01,meteohub,2013-03-31 23:35:00,
2013-03-31 18:40:00,39.4,19.8,22.21,NE,45,19.0,19.0,45,0.00,,,0.01,meteohub,2013-03-31 23:40:00,
2013-03-31 18:45:00,39.0,19.4,22.21,East,90,8.0,16.0,45,0.00,,,0.01,meteohub,2013-03-31 23:45:00,
2013-03-31 18:50:00,39.0,18.9,22.20,North,0,16.0,19.0,44,0.00,,,0.01,meteohub,2013-03-31 23:50:00,
2013-03-31 18:55:00,38.7,18.1,22.20,SW,225,11.0,19.0,43,0.00,,,0.01,meteohub,2013-03-31 23:55:00,
2013-03-31 19:00:00,38.5,18.0,22.20,East,90,14.0,18.0,43,0.00,,,0.01,meteohub,2013-04-01 00:00:00,
2013-03-31 19:05:00,38.5,18.0,22.19,East,90,14.0,18.0,43,0.00,,,0.00,meteohub,2013-04-01 00:05:00,
2013-03-31 19:10:00,37.9,18.0,22.19,ENE,68,11.0,18.0,44,0.00,,,0.00,meteohub,2013-04-01 00:10:00,
2013-03-31 19:15:00,37.6,17.6,22.19,East,90,13.0,14.0,44,0.00,,,0.00,meteohub,2013-04-01 00:15:00,
2013-03-31 19:20:00,37.2,14.5,22.19,East,90,11.0,15.0,39,0.00,,,0.00,meteohub,2013-04-01 00:20:00,
2013-03-31 19:25:00,36.9,14.2,22.18,NE,45,7.0,15.0,39,0.00,,,0.00,meteohub,2013-04-01 00:25:00,
2013-03-31 19:30:00,36.7,14.0,22.18,East,90,12.0,15.0,39,0.00,,,0.00,meteohub,2013-04-01 00:30:00,
2013-03-31 19:35:00,36.3,13.6,22.17,North,0,17.0,17.0,39,0.00,,,0.00,meteohub,2013-04-01 00:35:00,
2013-03-31 19:40:00,36.0,12.7,22.18,East,90,10.0,17.0,38,0.00,,,0.00,meteohub,2013-04-01 00:40:00,
2013-03-31 19:45:00,36.0,12.7,22.17,East,90,11.0,17.0,38,0.00,,,0.00,meteohub,2013-04-01 00:45:00,
2013-03-31 19:50:00,35.6,12.6,22.17,East,90,10.0,17.0,38,0.00,,,0.00,meteohub,2013-04-01 00:50:00,
2013-03-31 19:55:00,35.4,12.9,22.17,ENE,68,15.0,16.0,39,0.00,,,0.00,meteohub,2013-04-01 00:55:00,
2013-03-31 20:00:00,35.4,12.9,22.17,NE,45,14.0,16.0,39,0.00,,,0.00,meteohub,2013-04-01 01:00:00,
2013-03-31 20:05:00,35.4,12.4,22.16,NE,45,9.0,23.0,38,0.00,,,0.00,meteohub,2013-04-01 01:05:00,
2013-03-31 20:10:00,35.2,12.7,22.15,East,90,8.0,23.0,39,0.00,,,0.00,meteohub,2013-04-01 01:10:00,
2013-03-31 20:15:00,34.9,12.4,22.16,NE,45,8.0,23.0,39,0.00,,,0.00,meteohub,2013-04-01 01:15:00,
2013-03-31 20:20:00,34.9,12.4,22.15,ENE,68,11.0,16.0,39,0.00,,,0.00,meteohub,2013-04-01 01:20:00,
2013-03-31 20:25:00,34.9,11.8,22.15,North,0,7.0,16.0,38,0.00,,,0.00,meteohub,2013-04-01 01:25:00,
2013-03-31 20:30:00,34.7,11.7,22.15,East,90,9.0,16.0,38,0.00,,,0.00,meteohub,2013-04-01 01:30:00,
2013-03-31 20:35:00,34.7,11.7,22.15,NE,45,6.0,15.0,38,0.00,,,0.00,meteohub,2013-04-01 01:35:00,
2013-03-31 20:40:00,34.3,11.3,22.14,NE,45,15.0,15.0,38,0.00,,,0.00,meteohub,2013-04-01 01:40:00,
2013-03-31 20:45:00,34.3,10.8,22.14,NW,315,7.0,15.0,37,0.00,,,0.00,meteohub,2013-04-01 01:45:00,
2013-03-31 20:50:00,34.3,10.8,22.14,East,90,15.0,15.0,37,0.00,,,0.00,meteohub,2013-04-01 01:50:00,
2013-03-31 20:55:00,34.3,10.8,22.14,NE,45,8.0,15.0,37,0.00,,,0.00,meteohub,2013-04-01 01:55:00,
2013-03-31 21:00:00,34.2,11.1,22.13,NE,45,12.0,15.0,38,0.00,,,0.00,meteohub,2013-04-01 02:00:00,
2013-03-31 21:05:00,34.2,11.1,22.13,NE,45,12.0,15.0,38,0.00,,,0.00,meteohub,2013-04-01 02:05:00,
2013-03-31 21:10:00,33.8,11.5,22.13,NE,45,7.0,12.0,39,0.00,,,0.00,meteohub,2013-04-01 02:10:00,
2013-03-31 21:15:00,33.8,11.5,22.13,NE,45,5.0,12.0,39,0.00,,,0.00,meteohub,2013-04-01 02:15:00,
2013-03-31 21:20:00,33.6,11.8,22.12,NE,45,7.0,12.0,40,0.00,,,0.00,meteohub,2013-04-01 02:20:00,
2013-03-31 21:25:00,33.3,11.5,22.12,East,90,8.0,11.0,40,0.00,,,0.00,meteohub,2013-04-01 02:25:00,
2013-03-31 21:30:00,33.4,11.7,22.12,NE,45,8.0,8.0,40,0.00,,,0.00,meteohub,2013-04-01 02:30:00,
2013-03-31 21:35:00,33.3,11.5,22.12,NE,45,7.0,8.0,40,0.00,,,0.00,meteohub,2013-04-01 02:35:00,
2013-03-31 21:40:00,33.3,11.5,22.12,SE,135,9.0,9.0,40,0.00,,,0.00,meteohub,2013-04-01 02:40:00,
2013-03-31 21:45:00,33.4,11.7,22.12,ENE,68,8.0,12.0,40,0.00,,,0.00,meteohub,2013-04-01 02:45:00,
2013-03-31 21:50:00,33.4,11.7,22.12,NE,45,4.0,12.0,40,0.00,,,0.00,meteohub,2013-04-01 02:50:00,
2013-03-31 21:55:00,33.3,11.5,22.11,East,90,8.0,12.0,40,0.00,,,0.00,meteohub,2013-04-01 02:55:00,
2013-03-31 22:00:00,33.3,11.5,22.11,North,0,4.0,10.0,40,0.00,,,0.00,meteohub,2013-04-01 03:00:00,
2013-03-31 22:05:00,33.1,11.3,22.11,East,90,4.0,10.0,40,0.00,,,0.00,meteohub,2013-04-01 03:05:00,
2013-03-31 22:10:00,33.1,11.3,22.11,East,90,8.0,10.0,40,0.00,,,0.00,meteohub,2013-04-01 03:10:00,
2013-03-31 22:15:00,33.1,11.3,22.11,SE,135,7.0,9.0,40,0.00,,,0.00,meteohub,2013-04-01 03:15:00,
2013-03-31 22:20:00,33.1,11.3,22.10,NE,45,4.0,10.0,40,0.00,,,0.00,meteohub,2013-04-01 03:20:00,
2013-03-31 22:25:00,33.3,11.5,22.11,East,90,4.0,10.0,40,0.00,,,0.00,meteohub,2013-04-01 03:25:00,
2013-03-31 22:30:00,33.1,11.3,22.10,NE,45,4.0,10.0,40,0.00,,,0.00,meteohub,2013-04-01 03:30:00,
2013-03-31 22:35:00,32.9,11.8,22.10,NE,45,7.0,10.0,41,0.00,,,0.00,meteohub,2013-04-01 03:35:00,
2013-03-31 22:40:00,33.1,11.3,22.10,NW,315,2.0,8.0,40,0.00,,,0.00,meteohub,2013-04-01 03:40:00,
2013-03-31 22:45:00,32.7,11.7,22.10,East,90,7.0,8.0,41,0.00,,,0.00,meteohub,2013-04-01 03:45:00,
2013-03-31 22:50:00,32.7,11.7,22.09,NE,45,3.0,8.0,41,0.00,,,0.00,meteohub,2013-04-01 03:50:00,
2013-03-31 22:55:00,32.7,11.7,22.09,ESE,113,3.0,8.0,41,0.00,,,0.00,meteohub,2013-04-01 03:55:00,
2013-03-31 23:00:00,32.7,11.7,22.09,NE,45,4.0,8.0,41,0.00,,,0.00,meteohub,2013-04-01 04:00:00,
2013-03-31 23:01:00,32.7,11.7,22.09,NE,45,4.0,8.0,41,0.00,,,0.00,meteohub,2013-04-01 04:01:00,
2013-03-31 23:06:00,32.7,11.7,22.09,NE,45,4.0,8.0,41,0.00,,,0.00,meteohub,2013-04-01 04:06:00,
2013-03-31 23:07:00,32.7,11.7,22.09,NE,45,4.0,8.0,41,0.00,,,0.00,meteohub,2013-04-01 04:07:00,
2013-03-31 23:11:00,32.5,11.5,22.09,NE,45,4.0,8.0,41,0.00,,,0.00,meteohub,2013-04-01 04:11:00,
2013-03-31 23:16:00,32.5,12.0,22.09,East,90,10.0,10.0,42,0.00,,,0.00,meteohub,2013-04-01 04:16:00,
2013-03-31 23:21:00,32.5,11.5,22.09,North,0,12.0,12.0,41,0.00,,,0.00,meteohub,2013-04-01 04:21:00,
2013-03-31 23:22:00,32.5,11.5,22.09,North,0,12.0,12.0,41,0.00,,,0.00,meteohub,2013-04-01 04:22:00,
2013-03-31 23:27:00,32.4,11.3,22.09,SE,135,12.0,15.0,41,0.00,,,0.00,meteohub,2013-04-01 04:27:00,
2013-03-31 23:32:00,32.4,11.3,22.08,ENE,68,18.0,21.0,41,0.00,,,0.00,meteohub,2013-04-01 04:32:00,
2013-03-31 23:37:00,32.4,10.8,22.08,East,90,11.0,29.0,40,0.00,,,0.00,meteohub,2013-04-01 04:37:00,
2013-03-31 23:42:00,32.2,10.6,22.08,North,0,16.0,29.0,40,0.00,,,0.00,meteohub,2013-04-01 04:42:00,
2013-03-31 23:47:00,32.0,10.4,22.08,NE,45,17.0,29.0,40,0.00,,,0.00,meteohub,2013-04-01 04:47:00,
2013-03-31 23:52:00,31.8,10.8,22.08,ENE,68,9.0,17.0,41,0.00,,,0.00,meteohub,2013-04-01 04:52:00,
2013-03-31 23:57:00,31.5,10.9,22.07,North,0,11.0,17.0,42,0.00,,,0.00,meteohub,2013-04-01 04:57:00,